{"data":{"norad_id":25867,"intl_designator":"1999-040B","name":"CXO","alt_names":[],"object_type":"PAYLOAD","status":"ACTIVE","operator":null,"country":"US","launch_date":"1999-07-23","launch_site_code":"AFETR","launch_vehicle":null,"mission":null,"orbit_class":"UNKNOWN","rcs_meters":8.3048,"size_class":null,"mass_kg":null,"dimensions":null,"purposes":["science"],"wikipedia_slug":null,"has_3d_model":false,"image_url":null,"decayed_at":null,"tle_current":{"epoch":"2026-05-25T13:48:59.187456Z","epoch_age_seconds":21302,"freshness":"FRESH","line1":"1 25867U 99040B   26145.57568504  .00000437  00000+0  00000+0 0  9990","line2":"2 25867  55.8479 117.2365 7871499 310.4614   0.0224  0.37808626 17238","mean_motion":0.37808626,"eccentricity":0.7871499,"inclination_deg":55.8479,"raan_deg":117.2365,"arg_perigee_deg":310.4614,"mean_anomaly_deg":0.0224,"bstar":0,"rev_number":1723,"period_min":3808.6546704977,"perigee_km":10817.374669493,"apogee_km":138000.26338874,"semimajor_km":80786.956029115,"source":"CELESTRAK","updated_at":"2026-05-25T13:38:24.634356Z"}}}